User: anonymous   Login
Location: Unspecified
(0.0000°N, 0.0000°E)
Time: 10:50:46
(UTC+00:00)
Language:

NORSAT 2 - Orbit

View from above orbital plane
View from above orbital plane
View from above satellite
View from above satellite

Ground track
Ground track

The orbit data is extracted from the following two-line orbital elements,

1 42828U 17042D   18200.82243416  .00000316  00000-0  37319-4 0  9996
2 42828  97.5959 102.0878 0016098  90.1573 270.1490 14.91039625 55187
Epoch (UTC): 19 July 2018 19:44:18
Eccentricity: 0.0016098
inclination: 97.5959°
perigee height: 583 km
apogee height: 606 km
right ascension of ascending node: 102.0878°
argument of perigee: 90.1573°
revolutions per day: 14.91039625
mean anomaly at epoch: 270.1490°
orbit number at epoch: 5518

The dashed part of the orbit path shows where the satellite is in the earth's shadow,  

DLR